TimeAKST,TemperatureF,Dew PointF,Humidity,Sea Level PressureIn,VisibilityMPH,Wind Direction,Wind SpeedMPH,Gust SpeedMPH,PrecipitationIn,Events,Conditions,WindDirDegrees,DateUTC
12:16 AM,8.6,-7.6,48,29.73,10.0,WNW,16.1,21.9,N/A,,Clear,290,2013-11-15 09:16:00
12:36 AM,8.6,-5.8,52,29.75,10.0,WNW,17.3,21.9,N/A,,Clear,290,2013-11-15 09:36:00
12:56 AM,6.8,-4.0,61,29.77,10.0,WNW,12.7,-,N/A,,Clear,290,2013-11-15 09:56:00
1:16 AM,6.8,-4.0,61,29.77,10.0,WNW,13.8,-,N/A,,Clear,290,2013-11-15 10:16:00
1:36 AM,8.6,-7.6,48,29.78,10.0,WNW,13.8,19.6,N/A,,Clear,300,2013-11-15 10:36:00
1:56 AM,8.6,-7.6,48,29.80,10.0,WNW,10.4,-,N/A,,Clear,290,2013-11-15 10:56:00
2:16 AM,6.8,-9.4,48,29.81,10.0,NW,8.1,-,N/A,,Clear,310,2013-11-15 11:16:00
2:36 AM,6.8,-9.4,48,29.81,10.0,WNW,10.4,-,N/A,,Clear,300,2013-11-15 11:36:00
2:56 AM,5.0,-9.4,52,29.81,10.0,NW,10.4,-,N/A,,Clear,310,2013-11-15 11:56:00
3:16 AM,5.0,-11.2,47,29.82,10.0,WNW,5.8,-,N/A,,Clear,300,2013-11-15 12:16:00
3:36 AM,3.2,-14.8,43,29.83,10.0,WNW,6.9,-,N/A,,Clear,300,2013-11-15 12:36:00
3:56 AM,3.2,-9.4,56,29.84,10.0,Calm,Calm,-,N/A,,Clear,0,2013-11-15 12:56:00
4:16 AM,1.4,-11.2,56,29.85,10.0,Calm,Calm,-,N/A,,Clear,0,2013-11-15 13:16:00
4:36 AM,-0.4,-11.2,60,29.85,10.0,SE,4.6,-,N/A,,Clear,140,2013-11-15 13:36:00
4:56 AM,-0.4,-9.4,66,29.86,10.0,SSE,4.6,-,N/A,,Clear,160,2013-11-15 13:56:00
5:16 AM,-0.4,-9.4,66,29.86,10.0,Calm,Calm,-,N/A,,Partly Cloudy,0,2013-11-15 14:16:00
5:36 AM,-0.4,-7.6,72,29.86,10.0,South,5.8,-,N/A,,Mostly Cloudy,180,2013-11-15 14:36:00
5:56 AM,-0.4,-14.8,51,29.86,10.0,South,5.8,-,N/A,,Overcast,190,2013-11-15 14:56:00
6:16 AM,1.4,-2.2,85,29.87,10.0,SSW,11.5,-,N/A,,Overcast,210,2013-11-15 15:16:00
6:36 AM,1.4,-14.8,47,29.87,10.0,SW,10.4,-,N/A,,Overcast,230,2013-11-15 15:36:00
6:56 AM,1.4,-7.6,66,29.87,10.0,SW,8.1,-,N/A,,Overcast,220,2013-11-15 15:56:00
7:16 AM,1.4,-7.6,66,29.87,10.0,SW,5.8,-,N/A,,Overcast,220,2013-11-15 16:16:00
7:36 AM,1.4,-9.4,61,29.87,10.0,SW,9.2,-,N/A,,Overcast,220,2013-11-15 16:36:00
7:56 AM,-0.4,-7.6,72,29.87,10.0,SW,10.4,-,N/A,,Overcast,230,2013-11-15 16:56:00
8:16 AM,-0.4,-9.4,66,29.87,10.0,SW,9.2,-,N/A,,Mostly Cloudy,220,2013-11-15 17:16:00
8:36 AM,-2.2,-9.4,71,29.87,10.0,SW,9.2,-,N/A,,Clear,230,2013-11-15 17:36:00
8:56 AM,-2.2,-9.4,71,29.87,10.0,SW,9.2,-,N/A,,Clear,220,2013-11-15 17:56:00
9:16 AM,-2.2,-7.6,78,29.87,10.0,SSW,10.4,-,N/A,,Clear,210,2013-11-15 18:16:00
9:36 AM,-0.4,-9.4,66,29.87,10.0,SW,11.5,-,N/A,,Clear,220,2013-11-15 18:36:00
9:56 AM,-2.2,-9.4,71,29.86,10.0,SW,9.2,-,N/A,,Clear,220,2013-11-15 18:56:00
10:16 AM,-2.2,-7.6,78,29.86,10.0,SW,13.8,-,N/A,,Clear,230,2013-11-15 19:16:00
10:36 AM,-2.2,-7.6,78,29.85,10.0,WSW,13.8,-,N/A,,Clear,240,2013-11-15 19:36:00
10:56 AM,-2.2,-14.8,55,29.85,10.0,SW,12.7,-,N/A,,Clear,230,2013-11-15 19:56:00
11:16 AM,-0.4,-2.2,92,29.85,10.0,SW,8.1,-,N/A,,Clear,220,2013-11-15 20:16:00
11:36 AM,-2.2,-11.2,66,29.84,10.0,SSW,10.4,-,N/A,,Clear,200,2013-11-15 20:36:00
11:56 AM,-2.2,-9.4,71,29.84,10.0,Calm,Calm,-,N/A,,Clear,0,2013-11-15 20:56:00
12:16 PM,-0.4,-5.8,78,29.84,10.0,Calm,Calm,-,N/A,,Scattered Clouds,0,2013-11-15 21:16:00
12:36 PM,-4.0,-16.6,55,29.84,10.0,North,4.6,-,N/A,,Partly Cloudy,10,2013-11-15 21:36:00
12:56 PM,-5.8,-5.8,100,29.83,10.0,North,5.8,-,N/A,,Clear,10,2013-11-15 21:56:00
1:16 PM,-5.8,-22.0,46,29.83,10.0,NNE,3.5,-,N/A,,Clear,20,2013-11-15 22:16:00
1:36 PM,-5.8,-5.8,100,29.82,10.0,NNE,4.6,-,N/A,,Clear,30,2013-11-15 22:36:00
1:56 PM,-5.8,-18.4,55,29.82,10.0,Calm,Calm,-,N/A,,Clear,0,2013-11-15 22:56:00
2:16 PM,-4.0,-9.4,78,29.82,10.0,Calm,Calm,-,N/A,,Clear,0,2013-11-15 23:16:00
2:36 PM,-5.8,-20.2,50,29.82,10.0,Calm,Calm,-,N/A,,Clear,0,2013-11-15 23:36:00
2:56 PM,-5.8,-11.2,77,29.81,10.0,Calm,Calm,-,N/A,,Clear,0,2013-11-15 23:56:00
3:16 PM,-7.6,-23.8,45,29.81,10.0,West,3.5,-,N/A,,Clear,270,2013-11-16 00:16:00
3:36 PM,-7.6,-7.6,100,29.81,10.0,Calm,Calm,-,N/A,,Partly Cloudy,0,2013-11-16 00:36:00
3:56 PM,-7.6,-9999,N/A,29.80,10.0,Calm,Calm,-,N/A,,Partly Cloudy,0,2013-11-16 00:56:00
4:16 PM,-5.8,-9999,N/A,29.79,10.0,SSW,3.5,-,N/A,,Partly Cloudy,200,2013-11-16 01:16:00
4:36 PM,-5.8,-27.4,35,29.78,10.0,SW,5.8,-,N/A,,Partly Cloudy,220,2013-11-16 01:36:00
4:56 PM,-9.4,-9999,N/A,29.78,10.0,Calm,Calm,-,N/A,,Clear,0,2013-11-16 01:56:00
5:16 PM,-7.6,-18.4,59,29.77,10.0,Calm,Calm,-,N/A,,Partly Cloudy,0,2013-11-16 02:16:00
5:36 PM,-7.6,-9999,N/A,29.77,10.0,Calm,Calm,-,N/A,,Clear,0,2013-11-16 02:36:00
5:56 PM,-9.4,-9999,N/A,29.76,10.0,SSW,3.5,-,N/A,,Partly Cloudy,200,2013-11-16 02:56:00
6:16 PM,-5.8,-9999,N/A,29.75,10.0,SSW,10.4,-,N/A,,Clear,210,2013-11-16 03:16:00
6:36 PM,-5.8,-29.2,32,29.75,10.0,SSW,5.8,-,N/A,,Partly Cloudy,210,2013-11-16 03:36:00
6:56 PM,-5.8,-27.4,35,29.75,10.0,Calm,Calm,-,N/A,,Partly Cloudy,0,2013-11-16 03:56:00
7:16 PM,-7.6,-25.6,41,29.75,10.0,NW,3.5,-,N/A,,Partly Cloudy,310,2013-11-16 04:16:00
7:36 PM,-9.4,-23.8,49,29.75,10.0,Calm,Calm,-,N/A,,Partly Cloudy,0,2013-11-16 04:36:00
7:56 PM,-7.6,-14.8,71,29.75,10.0,Calm,Calm,-,N/A,,Clear,0,2013-11-16 04:56:00
8:16 PM,-9.4,-27.4,41,29.75,10.0,North,4.6,-,N/A,,Clear,360,2013-11-16 05:16:00
8:36 PM,-9.4,-9999,N/A,29.75,10.0,NE,4.6,-,N/A,,Clear,40,2013-11-16 05:36:00
8:56 PM,-9.4,-9999,N/A,29.75,10.0,ENE,3.5,-,N/A,,Clear,70,2013-11-16 05:56:00
9:16 PM,-9.4,-9999,N/A,29.74,10.0,Calm,Calm,-,N/A,,Clear,0,2013-11-16 06:16:00
9:56 PM,-7.6,-29.2,34,29.74,10.0,SW,3.5,-,N/A,,Scattered Clouds,220,2013-11-16 06:56:00
10:16 PM,-9.4,-27.4,41,29.75,10.0,Calm,Calm,-,N/A,,Mostly Cloudy,0,2013-11-16 07:16:00
10:36 PM,-7.6,-22.0,50,29.75,10.0,Calm,Calm,-,N/A,,Scattered Clouds,0,2013-11-16 07:36:00
10:56 PM,-9.4,-18.4,65,29.76,10.0,Calm,Calm,-,N/A,,Scattered Clouds,0,2013-11-16 07:56:00
11:16 PM,-9.4,-9999,N/A,29.76,10.0,North,3.5,-,N/A,,Mostly Cloudy,10,2013-11-16 08:16:00
11:36 PM,-7.6,-9999,N/A,29.76,10.0,Calm,Calm,-,N/A,,Mostly Cloudy,0,2013-11-16 08:36:00
11:56 PM,-7.6,-9999,N/A,29.76,10.0,Calm,Calm,-,N/A,,Mostly Cloudy,0,2013-11-16 08:56:00